Regional Weather Roundup
Issued by NWS

Home | Current Version | Previous Version | Graphics & Text | Print | Product List | Glossary On
Versions: 1 2 3 4 5 6 7 8 9 10 11 12 13 14 15 16 17 18 19 20 21 22 23 24 25 26 27 28 29 30 31 32 33 34 35 36 37 38 39 40 41 42 43 44 45 46 47 48 49 50
000
ASUS43 KBIS 251401
RWRND

NORTH DAKOTA REGIONAL WEATHER ROUNDUP
NATIONAL WEATHER SERVICE BISMARCK ND
900 AM CDT MON MAY 25 2015

NOTE: "FAIR" INDICATES FEW OR NO CLOUDS BELOW 12,000 FEET WITH NO
SIGNIFICANT WEATHER AND/OR OBSTRUCTIONS TO VISIBILITY.


NDZ001>003-009>011-017-251500-
NORTHWEST NORTH DAKOTA

CITY           SKY/WX    TMP DP  RH WIND       PRES   REMARKS
WILLISTON      PTSUNNY   57  47  69 CALM      29.88F
MINOT          CLOUDY    58  49  72 SW5       29.86S
MINOT AFB      PTSUNNY   63  55  74 NW2       29.85S
$$

NDZ018>021-031>035-040>046-251500-
SOUTHWEST NORTH DAKOTA

CITY           SKY/WX    TMP DP  RH WIND       PRES   REMARKS
BISMARCK       LGT RAIN  57  55  93 N5        29.86R FOG
DICKINSON      LGT RAIN  54  51  90 NE7       29.88R FOG
GARRISON         N/A     60  54  80 NW6       29.86S
HETTINGER ARPT RAIN      53  52  96 NE9       29.87R FOG
$$

NDZ004>008-012>016-024-026-027-054-251500-
NORTHEAST NORTH DAKOTA

CITY           SKY/WX    TMP DP  RH WIND       PRES   REMARKS
GRAND FORKS    CLOUDY    61  53  75 W7        29.78F
GRND FRKS AFB  CLOUDY    63  52  67 W7        29.79F
DEVILS LAKE    CLOUDY    61  48  63 N3        29.83S
$$

NDZ022-023-025-028>030-036>039-047>053-251500-
SOUTHEAST NORTH DAKOTA

CITY           SKY/WX    TMP DP  RH WIND       PRES   REMARKS
FARGO          LGT RAIN  59  56  89 N10       29.77S
JAMESTOWN      CLOUDY    59  56  89 N3        29.81S
$$



USA.gov is the U.S. government's official web portal to all federal, state and local government web resources and services.